Location: Bacea
(45.9500°N, 22.6667°E)
Time: 00:02:04
(UTC+00:00)

Cosmos 371 Rocket - Pass Details

Date: 16 October 2021
Orbit: 683 x 699 km, 74.0° (Epoch: 26 November)

Event Time Altitude Azimuth Distance (km) Brightness Sun altitude
Rises 17:44:30 0° 190° (S) 3,049 6.6 -22.1°
Reaches altitude 10° 17:46:48 10° 186° (S) 2,140 5.8 -22.5°
Enters shadow 17:50:08 42° 166° (SSE) 989 3.8 -23.1°
